Location: Seattle
(47.6064°N, 122.3308°W)
Time: 01:30:25
(UTC-07:00)

ISS - Visible Passes

Search period start: 11 May 2021 00:00
Search period end: 21 May 2021 00:00
Orbit: 418 x 421 km, 51.6° (Epoch: 11 May)

Date Brightness Start Highest point End Pass type
(mag) Time Alt. Az. Time Alt. Az. Time Alt. Az.
11 May -0.8 00:48:59 11° ENE 00:48:59 11° ENE 00:49:07 10° ENE visible
11 May -2.5 02:21:56 34° NW 02:22:46 41° N 02:26:00 10° ENE visible
11 May -2.9 03:56:39 10° WNW 03:59:58 52° NNE 04:03:17 10° E visible
12 May -2.5 01:35:49 40° NNE 01:35:49 40° NNE 01:38:31 10° ENE visible
12 May -2.6 03:09:11 10° WNW 03:12:27 44° N 03:15:43 10° E visible
12 May -3.8 04:46:02 10° WNW 04:49:23 65° SSW 04:52:45 10° SE visible
13 May -1.7 00:49:36 23° NE 00:49:36 23° NE 00:51:04 10° ENE visible
13 May -2.4 02:22:31 16° WNW 02:24:55 40° N 02:28:09 10° ENE visible
13 May -3.8 03:58:35 10° WNW 04:01:59 88° NNE 04:05:21 10° ESE visible
14 May -1.2 00:03:01 14° ENE 00:03:01 14° ENE 00:03:38 10° ENE visible
14 May -2.4 01:35:53 25° NW 01:37:22 39° N 01:40:35 10° ENE visible
14 May -3.4 03:11:09 10° WNW 03:14:31 66° NNE 03:17:53 10° ESE visible
14 May -2.8 04:48:11 10° W 04:51:09 28° SW 04:54:06 10° SSE visible
14 May -2.2 21:34:07 10° S 21:36:23 17° SE 21:38:39 10° E visible
14 May -3.9 23:09:25 10° WSW 23:12:47 85° SSE 23:16:10 10° ENE visible
15 May -2.5 00:46:35 10° WNW 00:49:49 41° N 00:53:03 10° ENE visible
15 May -3.0 02:23:42 10° WNW 02:27:01 52° NNE 02:30:20 10° E visible
15 May -3.4 04:00:35 10° WNW 04:03:49 43° SSW 04:07:02 10° SE visible
15 May -3.8 22:22:03 10° SW 22:25:22 59° SSE 22:28:42 10° ENE visible
15 May -2.7 23:59:01 10° W 00:02:17 46° N 00:05:34 10° ENE visible
16 May -2.6 01:36:14 10° WNW 01:39:30 44° N 01:42:46 10° E visible
16 May -3.9 03:13:05 10° WNW 03:16:26 64° SSW 03:19:47 10° SE visible
16 May -1.8 04:51:18 10° WSW 04:52:42 12° SW 04:54:06 10° SSW visible
16 May -3.3 21:34:51 10° SW 21:38:00 39° SE 21:41:11 10° ENE visible
16 May -3.0 23:11:27 10° W 23:14:46 55° NNW 23:18:06 10° ENE visible
17 May -2.4 00:48:44 10° WNW 00:51:57 40° N 00:54:26 15° ENE visible
17 May -2.1 02:25:37 10° WNW 02:33:45 - ESE 02:27:13 26° WNW visible
17 May -1.7 04:07:15 13° S 04:07:15 13° S 04:07:54 10° S visible
17 May -3.5 22:23:55 10° WSW 22:27:17 70° NNW 22:30:39 10° ENE visible
18 May -2.4 00:01:12 10° WNW 00:04:24 39° N 00:07:25 11° ENE visible
18 May -2.5 01:38:10 10° WNW 01:40:19 35° NW 01:40:19 35° NW visible
18 May -3.8 21:36:27 10° WSW 21:39:49 86° SSE 21:43:12 10° ENE visible
18 May -2.4 23:13:38 10° WNW 23:16:51 41° N 23:20:05 10° ENE visible
19 May -3.0 00:50:44 10° WNW 00:54:02 52° NNE 00:54:02 52° NNE visible
19 May -2.6 22:26:02 10° W 22:29:18 45° N 22:32:35 10° ENE visible
20 May -2.7 00:03:15 10° WNW 00:06:31 44° N 00:07:55 27° ENE visible
20 May -1.3 01:40:06 10° WNW 01:40:51 15° WNW 01:40:51 15° WNW visible
20 May -2.9 21:38:28 10° W 21:41:47 54° NNW 21:45:07 10° ENE visible
20 May -2.5 23:15:45 10° WNW 23:18:58 40° N 23:21:51 12° ENE visible
